Tracking 34747 objects as of 16-Jul-2026
HD Live streaming from Space Station
objects crossing your sky now

STARLINK-31465

Track STARLINK-31465 now!
10-day predictions
STARLINK-31465 is classified as:


NORAD ID: 59012
Int'l Code: 2024-036Q
Perigee: 481.5 km
Apogee: 483.2 km
Inclination: 53.2 °
Period: 94.1 minutes
Semi major axis: 6853 km
RCS: Unknown
Launch date: February 23, 2024
Source: United States (US)
Launch site: AIR FORCE WESTERN TEST RANGE (AFWTR)
Your satellite tracking list
Your tracking list is empty




NASA's NSSDC Master Catalog

Two Line Element Set (TLE):
1 59012U 24036Q   26197.45733673  .00004813  00000-0  17449-3 0  9999
2 59012  53.1579 200.3316 0001235  81.4067 278.7073 15.30206542135035
Source of the keplerian elements: AFSPC